Flag for India Weather past 2 weeks in Chennai, Tamil Nadu, India

Now
82 °F

Passing clouds.


Feels Like: 91 °F
Forecast: 81 / 90 °F
Wind: 8 mph from South

Location: Madras / Minambakkam

Current Time: Aug 22, 2014 at 2:34:34 AM

Latest Report: Aug 22, 2014 at 1:40 AM


Visibility: 4 mi

Pressure: 29.65 "Hg

Humidity: 84%

Dew point: 77 °F

Location of ChennaiLocation

Historic Weather in Chennai — Graph

°F

Chennai temperature yesterday

Maximum temperature yesterday: 93 °F (at 11:40 AM)
Minimum temperature yesterday: 81 °F (at 3:10 AM)
Average temperature yesterday: 86 °F

Past Weeks' High & Low Weather Summary

 TemperatureHumidityPressure
High95 °F (Aug 8, 12:40 PM)94% (Aug 9, 1:40 AM)29.83 "Hg (Aug 9, 1:40 AM)
Low75 °F (Aug 9, 1:40 AM)41% (Aug 8, 2:40 PM)29.56 "Hg (Aug 8, 4:40 PM)
Average85 °F72%29.72 "Hg
* Reported Aug 7 12:40 AM — Aug 22 1:10 AM, Chennai, Weather by CustomWeather, © 2014

Note: Actual official high and low records may vary slightly from our data, if they occured in-between our weather recording intervals... More about our weather records

Advertising

Chennai weather history for previous 24 hours

 ConditionsComfort  
Time TempWeatherWind HumidityBarometerVisibility
1:10 AM
Aug 22
82 °FPassing clouds.6 mph84%29.65 "Hg4 mi
12:40 AM82 °FPassing clouds.6 mph84%29.68 "Hg4 mi
12:10 AM82 °FPassing clouds.7 mph84%29.68 "Hg4 mi
11:40 PM
Aug 21
84 °FPassing clouds.9 mph79%29.68 "Hg4 mi
11:10 PM84 °FPassing clouds.8 mph74%29.68 "Hg4 mi
10:40 PM84 °FPassing clouds.9 mph74%29.71 "Hg4 mi
10:10 PM84 °FPassing clouds.9 mph74%29.71 "Hg4 mi
9:40 PM84 °FPassing clouds.9 mph74%29.71 "Hg4 mi
9:10 PM84 °FPassing clouds.9 mph74%29.68 "Hg4 mi
8:40 PM84 °FPassing clouds.12 mph74%29.68 "Hg4 mi
8:10 PM84 °FPassing clouds.12 mph70%29.68 "Hg4 mi
7:40 PM84 °FPassing clouds.13 mph70%29.65 "Hg4 mi
7:10 PM84 °FPassing clouds.14 mph70%29.65 "Hg4 mi
6:40 PM86 °FPassing clouds.8 mph66%29.62 "Hg4 mi
6:10 PM86 °FPassing clouds.9 mph66%29.59 "Hg4 mi
5:40 PM88 °FPassing clouds.13 mph62%29.59 "Hg5 mi
5:10 PM90 °FPassing clouds.12 mph55%29.59 "Hg5 mi
4:40 PM90 °FPassing clouds.9 mph55%29.59 "Hg5 mi
4:10 PM90 °FPassing clouds.9 mph59%29.59 "Hg5 mi
3:40 PM91 °FPassing clouds.9 mph56%29.59 "Hg5 mi
3:10 PM91 °FPassing clouds.10 mph56%29.62 "Hg5 mi
2:40 PM93 °FScattered clouds.9 mph53%29.62 "Hg5 mi
2:10 PM93 °FScattered clouds.14 mph53%29.62 "Hg5 mi
1:40 PM93 °FScattered clouds.9 mph53%29.62 "Hg5 mi
1:10 PM93 °FScattered clouds.10 mph53%29.65 "Hg5 mi
12:40 PM93 °FScattered clouds.10 mph53%29.65 "Hg5 mi
12:10 PM93 °FScattered clouds.9 mph53%29.68 "Hg5 mi
11:40 AM93 °FScattered clouds.10 mph53%29.68 "Hg5 mi
11:10 AM91 °FScattered clouds.8 mph59%29.71 "Hg4 mi
10:40 AM90 °FScattered clouds.8 mph63%29.71 "Hg4 mi
10:10 AM88 °FScattered clouds.7 mph66%29.71 "Hg4 mi
9:40 AM88 °FPassing clouds.8 mph66%29.71 "Hg4 mi
9:10 AM88 °FPassing clouds.9 mph66%29.71 "Hg4 mi
8:40 AM86 °FPassing clouds.9 mph70%29.71 "Hg4 mi
8:10 AM84 °FPassing clouds.9 mph74%29.71 "Hg4 mi
7:40 AM82 °FPassing clouds.8 mph84%29.71 "Hg4 mi
7:10 AM81 °FPassing clouds.9 mph89%29.71 "Hg4 mi
6:40 AM81 °FPassing clouds.7 mph89%29.71 "Hg4 mi
6:10 AM81 °FPassing clouds.5 mph89%29.68 "Hg4 mi
5:40 AM81 °FPassing clouds.9 mph89%29.68 "Hg4 mi
5:10 AM81 °FPassing clouds.7 mph89%29.68 "Hg4 mi
4:40 AM81 °FPassing clouds.5 mph89%29.65 "Hg4 mi
4:10 AM81 °FPassing clouds.7 mph89%29.65 "Hg4 mi
3:40 AM81 °FPassing clouds.5 mph89%29.65 "Hg4 mi
3:10 AM81 °FPassing clouds.6 mph89%29.65 "Hg4 mi
2:10 AM82 °FPassing clouds.6 mph84%29.65 "Hg4 mi
Weather by CustomWeather, © 2014

See weather overviewHow to use our weather pages